Time,TemperatureF,DewpointF,PressureIn,WindDirection,WindDirectionDegrees,WindSpeedMPH,WindSpeedGustMPH,Humidity,HourlyPrecipIn,Conditions,Clouds,dailyrainin,SoftwareType,DateUTC
2013-07-02 00:01:00,77.2,22.6,0.00,NNW,338,3.1,3.1,13,0.00,,---,0.00,VWS V14.01,2013-07-02 07:01:00,
2013-07-02 00:06:00,76.8,22.3,0.00,NNW,346,3.6,3.6,13,0.00,,---,0.00,VWS V14.01,2013-07-02 07:06:00,
2013-07-02 00:11:00,76.5,22.0,0.00,NNW,346,4.0,5.4,13,0.00,,---,0.00,VWS V14.01,2013-07-02 07:11:00,
2013-07-02 00:16:00,76.1,21.7,0.00,NNW,341,5.4,7.6,13,0.00,,---,0.00,VWS V14.01,2013-07-02 07:16:00,
2013-07-02 00:21:00,76.1,21.7,0.00,NNW,338,5.8,6.3,13,0.00,,---,0.00,VWS V14.01,2013-07-02 07:21:00,
2013-07-02 00:26:00,75.9,21.6,0.00,North,353,5.8,5.8,13,0.00,,---,0.00,VWS V14.01,2013-07-02 07:26:00,
2013-07-02 00:31:00,75.9,21.6,0.00,NNW,340,5.8,5.8,13,0.00,,---,0.00,VWS V14.01,2013-07-02 07:31:00,
2013-07-02 00:36:00,75.9,21.6,0.00,North,353,4.0,4.0,13,0.00,,---,0.00,VWS V14.01,2013-07-02 07:36:00,
2013-07-02 00:41:00,75.7,21.5,0.00,North,353,4.9,6.3,13,0.00,,---,0.00,VWS V14.01,2013-07-02 07:41:00,
2013-07-02 00:46:00,75.4,24.6,0.00,North,357,3.6,3.6,15,0.00,,---,0.00,VWS V14.01,2013-07-02 07:46:00,
2013-07-02 00:51:00,75.0,25.8,0.00,NNW,344,7.2,7.2,16,0.00,,---,0.00,VWS V14.01,2013-07-02 07:51:00,
2013-07-02 00:56:00,74.8,25.7,0.00,North,353,5.4,8.1,16,0.00,,---,0.00,VWS V14.01,2013-07-02 07:56:00,
2013-07-02 01:01:00,74.8,25.7,0.00,NNW,340,4.9,8.1,16,0.00,,---,0.00,VWS V14.01,2013-07-02 08:01:00,
2013-07-02 01:06:00,74.7,25.5,0.00,North,0,6.3,6.3,16,0.00,,---,0.00,VWS V14.01,2013-07-02 08:06:00,
2013-07-02 01:11:00,74.5,25.4,0.00,North,353,5.8,6.3,16,0.00,,---,0.00,VWS V14.01,2013-07-02 08:11:00,
2013-07-02 01:16:00,74.3,25.2,0.00,NNW,339,3.1,5.4,16,0.00,,---,0.00,VWS V14.01,2013-07-02 08:16:00,
2013-07-02 01:21:00,74.1,27.9,0.00,NNW,344,6.3,6.3,18,0.00,,---,0.00,VWS V14.01,2013-07-02 08:21:00,
2013-07-02 01:26:00,73.8,27.6,0.00,NNW,339,4.0,5.4,18,0.00,,---,0.00,VWS V14.01,2013-07-02 08:26:00,
2013-07-02 01:31:00,73.6,27.5,0.00,North,349,4.0,5.8,18,0.00,,---,0.00,VWS V14.01,2013-07-02 08:31:00,
2013-07-02 01:36:00,73.4,27.4,0.00,NNW,329,3.6,3.6,18,0.00,,---,0.00,VWS V14.01,2013-07-02 08:36:00,
2013-07-02 01:41:00,73.2,28.5,0.00,NNW,334,2.2,2.7,19,0.00,,---,0.00,VWS V14.01,2013-07-02 08:41:00,
2013-07-02 01:46:00,73.0,30.8,0.00,NNW,334,0.0,0.0,21,0.00,,---,0.00,VWS V14.01,2013-07-02 08:46:00,
2013-07-02 01:51:00,72.7,30.5,0.00,NNW,334,0.0,0.0,21,0.00,,---,0.00,VWS V14.01,2013-07-02 08:51:00,
2013-07-02 01:56:00,72.3,31.4,0.00,NNW,334,0.0,0.0,22,0.00,,---,0.00,VWS V14.01,2013-07-02 08:56:00,
2013-07-02 02:01:00,72.1,31.2,0.00,NNW,333,0.0,0.0,22,0.00,,---,0.00,VWS V14.01,2013-07-02 09:01:00,
2013-07-02 02:06:00,72.1,31.2,0.00,NNW,333,0.0,0.0,22,0.00,,---,0.00,VWS V14.01,2013-07-02 09:06:00,
2013-07-02 02:11:00,72.1,31.2,0.00,NNW,333,0.0,0.0,22,0.00,,---,0.00,VWS V14.01,2013-07-02 09:11:00,
2013-07-02 02:16:00,72.0,31.1,0.00,NNW,333,0.0,0.0,22,0.00,,---,0.00,VWS V14.01,2013-07-02 09:16:00,
2013-07-02 02:21:00,71.8,30.9,0.00,NNW,333,0.0,0.0,22,0.00,,---,0.00,VWS V14.01,2013-07-02 09:21:00,
2013-07-02 02:26:00,71.6,30.8,0.00,NNW,333,0.0,0.0,22,0.00,,---,0.00,VWS V14.01,2013-07-02 09:26:00,
2013-07-02 02:31:00,71.4,30.6,0.00,NNW,333,0.0,0.0,22,0.00,,---,0.00,VWS V14.01,2013-07-02 09:31:00,
2013-07-02 02:36:00,71.2,30.5,0.00,NNW,333,0.0,0.0,22,0.00,,---,0.00,VWS V14.01,2013-07-02 09:36:00,
2013-07-02 02:41:00,71.4,30.6,0.00,NNW,333,0.0,0.0,22,0.00,,---,0.00,VWS V14.01,2013-07-02 09:41:00,
2013-07-02 02:46:00,71.2,30.5,0.00,NNW,333,0.0,0.0,22,0.00,,---,0.00,VWS V14.01,2013-07-02 09:46:00,
2013-07-02 02:51:00,71.1,30.3,0.00,NNW,333,0.0,0.0,22,0.00,,---,0.00,VWS V14.01,2013-07-02 09:51:00,
2013-07-02 02:56:00,70.9,30.2,0.00,NNW,333,0.0,0.0,22,0.00,,---,0.00,VWS V14.01,2013-07-02 09:56:00,
2013-07-02 03:01:00,70.9,31.3,0.00,NNW,333,0.0,0.0,23,0.00,,---,0.00,VWS V14.01,2013-07-02 10:01:00,
2013-07-02 03:06:00,71.1,31.4,0.00,NNW,333,0.0,0.0,23,0.00,,---,0.00,VWS V14.01,2013-07-02 10:06:00,
2013-07-02 03:11:00,71.2,30.5,0.00,NNW,333,0.0,0.0,22,0.00,,---,0.00,VWS V14.01,2013-07-02 10:11:00,
2013-07-02 03:16:00,71.2,30.5,0.00,NNW,334,0.0,0.0,22,0.00,,---,0.00,VWS V14.01,2013-07-02 10:16:00,
2013-07-02 03:21:00,71.2,30.5,0.00,NNW,338,0.0,0.0,22,0.00,,---,0.00,VWS V14.01,2013-07-02 10:21:00,
2013-07-02 03:26:00,71.1,30.3,0.00,NNW,338,0.0,0.0,22,0.00,,---,0.00,VWS V14.01,2013-07-02 10:26:00,
2013-07-02 03:31:00,70.7,31.1,0.00,NNW,338,0.0,0.0,23,0.00,,---,0.00,VWS V14.01,2013-07-02 10:31:00,
2013-07-02 03:35:00,70.5,31.0,0.00,NNW,341,0.0,0.0,23,0.00,,---,0.00,VWS V14.01,2013-07-02 10:35:00,
2013-07-02 03:40:00,70.0,30.5,0.00,NNE,26,0.0,0.0,23,0.00,,---,0.00,VWS V14.01,2013-07-02 10:40:00,
2013-07-02 03:45:00,69.6,30.2,0.00,NNE,32,0.0,0.0,23,0.00,,---,0.00,VWS V14.01,2013-07-02 10:45:00,
2013-07-02 03:50:00,69.4,30.1,0.00,NNE,32,0.0,0.0,23,0.00,,---,0.00,VWS V14.01,2013-07-02 10:50:00,
2013-07-02 03:55:00,69.1,29.8,0.00,NNE,32,0.0,0.0,23,0.00,,---,0.00,VWS V14.01,2013-07-02 10:55:00,
2013-07-02 04:00:00,68.9,29.6,0.00,NNE,32,0.0,0.0,23,0.00,,---,0.00,VWS V14.01,2013-07-02 11:00:00,
2013-07-02 04:05:00,68.7,30.5,0.00,NNE,32,0.0,0.0,24,0.00,,---,0.00,VWS V14.01,2013-07-02 11:05:00,
2013-07-02 04:10:00,68.9,30.6,0.00,NNW,340,0.0,0.0,24,0.00,,---,0.00,VWS V14.01,2013-07-02 11:10:00,
2013-07-02 04:15:00,68.9,32.6,0.00,NNW,338,3.1,3.6,26,0.00,,---,0.00,VWS V14.01,2013-07-02 11:15:00,
2013-07-02 04:20:00,68.7,32.5,0.00,North,353,3.1,3.6,26,0.00,,---,0.00,VWS V14.01,2013-07-02 11:20:00,
2013-07-02 04:25:00,68.7,33.4,0.00,North,353,0.0,0.0,27,0.00,,---,0.00,VWS V14.01,2013-07-02 11:25:00,
2013-07-02 04:30:00,68.5,33.3,0.00,North,353,0.0,0.0,27,0.00,,---,0.00,VWS V14.01,2013-07-02 11:30:00,
2013-07-02 04:35:00,68.4,33.1,0.00,North,353,0.0,0.0,27,0.00,,---,0.00,VWS V14.01,2013-07-02 11:35:00,
2013-07-02 04:40:00,68.4,33.1,0.00,North,353,0.0,0.0,27,0.00,,---,0.00,VWS V14.01,2013-07-02 11:40:00,
2013-07-02 04:45:00,68.2,33.9,0.00,North,353,0.0,0.0,28,0.00,,---,0.00,VWS V14.01,2013-07-02 11:45:00,
2013-07-02 04:50:00,68.0,33.7,0.00,North,353,0.0,0.0,28,0.00,,---,0.00,VWS V14.01,2013-07-02 11:50:00,
2013-07-02 04:55:00,67.8,33.5,0.00,North,353,0.0,0.0,28,0.00,,---,0.00,VWS V14.01,2013-07-02 11:55:00,
2013-07-02 05:00:00,67.8,34.4,0.00,North,353,0.0,0.0,29,0.00,,---,0.00,VWS V14.01,2013-07-02 12:00:00,
2013-07-02 05:05:00,67.6,34.3,0.00,North,353,0.0,0.0,29,0.00,,---,0.00,VWS V14.01,2013-07-02 12:05:00,
2013-07-02 05:10:00,67.5,35.0,0.00,North,353,0.0,0.0,30,0.00,,---,0.00,VWS V14.01,2013-07-02 12:10:00,
2013-07-02 05:15:00,67.5,35.8,0.00,North,353,0.0,0.0,31,0.00,,---,0.00,VWS V14.01,2013-07-02 12:15:00,
2013-07-02 05:20:00,67.6,36.0,0.00,North,353,0.0,0.0,31,0.00,,---,0.00,VWS V14.01,2013-07-02 12:20:00,
2013-07-02 05:25:00,68.0,35.4,0.00,North,353,0.0,0.0,30,0.00,,---,0.00,VWS V14.01,2013-07-02 12:25:00,
2013-07-02 05:30:00,68.4,34.0,0.00,North,353,0.0,0.0,28,0.00,,---,0.00,VWS V14.01,2013-07-02 12:30:00,
2013-07-02 05:35:00,68.5,33.3,0.00,NNW,340,0.0,0.0,27,0.00,,---,0.00,VWS V14.01,2013-07-02 12:35:00,
2013-07-02 05:40:00,68.5,33.3,0.00,NNW,340,0.0,0.0,27,0.00,,---,0.00,VWS V14.01,2013-07-02 12:40:00,
2013-07-02 05:45:00,68.5,34.2,0.00,North,353,4.0,5.4,28,0.00,,---,0.00,VWS V14.01,2013-07-02 12:45:00,
2013-07-02 05:50:00,68.4,35.8,0.00,North,353,4.0,5.4,30,0.00,,---,0.00,VWS V14.01,2013-07-02 12:50:00,
2013-07-02 05:55:00,68.4,36.6,0.00,NNE,32,0.0,0.0,31,0.00,,---,0.00,VWS V14.01,2013-07-02 12:55:00,
2013-07-02 06:00:00,68.2,36.4,0.00,NNE,27,0.0,0.0,31,0.00,,---,0.00,VWS V14.01,2013-07-02 13:00:00,
2013-07-02 06:05:00,68.2,36.4,0.00,NE,41,0.0,0.0,31,0.00,,---,0.00,VWS V14.01,2013-07-02 13:05:00,
2013-07-02 06:10:00,68.2,36.4,0.00,NE,35,0.0,0.0,31,0.00,,---,0.00,VWS V14.01,2013-07-02 13:10:00,
2013-07-02 06:15:00,68.4,36.6,0.00,NE,36,0.0,0.0,31,0.00,,---,0.00,VWS V14.01,2013-07-02 13:15:00,
2013-07-02 06:20:00,68.7,36.1,0.00,NE,35,0.0,0.0,30,0.00,,---,0.00,VWS V14.01,2013-07-02 13:20:00,
2013-07-02 06:25:00,68.9,35.4,0.00,NE,36,0.0,0.0,29,0.00,,---,0.00,VWS V14.01,2013-07-02 13:25:00,
2013-07-02 06:30:00,69.1,34.6,0.00,NE,35,0.0,0.0,28,0.00,,---,0.00,VWS V14.01,2013-07-02 13:30:00,
2013-07-02 06:35:00,69.4,34.0,0.00,ENE,57,0.0,0.0,27,0.00,,---,0.00,VWS V14.01,2013-07-02 13:35:00,
2013-07-02 06:40:00,70.0,33.5,0.00,ENE,57,0.0,0.0,26,0.00,,---,0.00,VWS V14.01,2013-07-02 13:40:00,
2013-07-02 06:45:00,70.7,33.2,0.00,ENE,57,0.0,0.0,25,0.00,,---,0.00,VWS V14.01,2013-07-02 13:45:00,
2013-07-02 06:50:00,72.0,33.2,0.00,ENE,57,0.0,0.0,24,0.00,,---,0.00,VWS V14.01,2013-07-02 13:50:00,
2013-07-02 06:55:00,72.9,32.9,0.00,ENE,57,0.0,0.0,23,0.00,,---,0.00,VWS V14.01,2013-07-02 13:55:00,
2013-07-02 07:00:00,73.2,32.1,0.00,ENE,57,0.0,0.0,22,0.00,,---,0.00,VWS V14.01,2013-07-02 14:00:00,
2013-07-02 07:05:00,73.8,31.4,0.00,NNW,348,0.0,0.0,21,0.00,,---,0.00,VWS V14.01,2013-07-02 14:05:00,
2013-07-02 07:10:00,73.8,31.4,0.00,NNE,21,0.0,0.0,21,0.00,,---,0.00,VWS V14.01,2013-07-02 14:10:00,
2013-07-02 07:15:00,73.8,31.4,0.00,North,357,0.0,0.0,21,0.00,,---,0.00,VWS V14.01,2013-07-02 14:15:00,
2013-07-02 07:20:00,73.8,31.4,0.00,North,353,0.0,0.0,21,0.00,,---,0.00,VWS V14.01,2013-07-02 14:20:00,
2013-07-02 07:25:00,73.4,31.1,0.00,NNE,31,0.0,0.0,21,0.00,,---,0.00,VWS V14.01,2013-07-02 14:25:00,
2013-07-02 07:30:00,72.9,31.8,0.00,North,357,0.0,0.0,22,0.00,,---,0.00,VWS V14.01,2013-07-02 14:30:00,
2013-07-02 07:35:00,72.7,32.8,0.00,NNE,32,0.0,2.2,23,0.00,,---,0.00,VWS V14.01,2013-07-02 14:35:00,
2013-07-02 07:40:00,72.7,31.7,0.00,North,4,3.6,4.0,22,0.00,,---,0.00,VWS V14.01,2013-07-02 14:40:00,
2013-07-02 07:45:00,73.0,32.0,0.00,NE,45,3.1,3.1,22,0.00,,---,0.00,VWS V14.01,2013-07-02 14:45:00,
2013-07-02 07:50:00,73.9,31.6,0.00,ENE,64,2.7,2.7,21,0.00,,---,0.00,VWS V14.01,2013-07-02 14:50:00,
2013-07-02 07:55:00,74.3,31.9,0.00,North,10,2.2,2.2,21,0.00,,---,0.00,VWS V14.01,2013-07-02 14:55:00,
2013-07-02 08:00:00,74.5,32.0,0.00,NE,37,0.0,0.0,21,0.00,,---,0.00,VWS V14.01,2013-07-02 15:00:00,
2013-07-02 08:05:00,75.0,32.5,0.00,North,353,4.0,4.0,21,0.00,,---,0.00,VWS V14.01,2013-07-02 15:05:00,
2013-07-02 08:10:00,75.0,32.5,0.00,North,353,3.6,8.7,21,0.00,,---,0.00,VWS V14.01,2013-07-02 15:10:00,
2013-07-02 08:15:00,74.5,32.0,0.00,NNW,346,7.6,7.6,21,0.00,,---,0.00,VWS V14.01,2013-07-02 15:15:00,
2013-07-02 08:20:00,74.5,32.0,0.00,North,0,3.6,3.6,21,0.00,,---,0.00,VWS V14.01,2013-07-02 15:20:00,
2013-07-02 08:25:00,74.7,32.2,0.00,ENE,71,0.0,0.0,21,0.00,,---,0.00,VWS V14.01,2013-07-02 15:25:00,
2013-07-02 08:30:00,72.7,31.7,0.00,NE,47,0.0,0.0,22,0.00,,---,0.00,VWS V14.01,2013-07-02 15:30:00,
2013-07-02 08:35:00,74.5,32.0,0.00,NE,35,0.0,0.0,21,0.00,,---,0.00,VWS V14.01,2013-07-02 15:35:00,
2013-07-02 08:40:00,74.7,32.2,0.00,North,0,0.0,0.0,21,0.00,,---,0.00,VWS V14.01,2013-07-02 15:40:00,
2013-07-02 08:45:00,75.6,31.7,0.00,North,6,0.0,0.0,20,0.00,,---,0.00,VWS V14.01,2013-07-02 15:45:00,
2013-07-02 08:50:00,76.1,29.6,0.00,NNW,345,0.0,0.0,18,0.00,,---,0.00,VWS V14.01,2013-07-02 15:50:00,
2013-07-02 08:55:00,77.4,30.6,0.00,North,357,0.0,0.0,18,0.00,,---,0.00,VWS V14.01,2013-07-02 15:55:00,
2013-07-02 09:00:00,77.7,30.9,0.00,NNE,18,0.0,0.0,18,0.00,,---,0.00,VWS V14.01,2013-07-02 16:00:00,
2013-07-02 09:05:00,77.4,30.6,0.00,NE,53,0.0,0.0,18,0.00,,---,0.00,VWS V14.01,2013-07-02 16:05:00,
2013-07-02 09:10:00,77.5,30.7,0.00,SSE,152,0.0,0.0,18,0.00,,---,0.00,VWS V14.01,2013-07-02 16:10:00,
2013-07-02 09:15:00,77.9,31.0,0.00,ENE,57,0.0,0.0,18,0.00,,---,0.00,VWS V14.01,2013-07-02 16:15:00,
2013-07-02 09:20:00,79.3,27.7,0.00,South,169,0.0,0.0,15,0.00,,---,0.00,VWS V14.01,2013-07-02 16:20:00,
2013-07-02 09:25:00,80.2,28.4,0.00,South,176,0.0,0.0,15,0.00,,---,0.00,VWS V14.01,2013-07-02 16:25:00,
2013-07-02 09:30:00,80.4,28.6,0.00,South,178,0.0,0.0,15,0.00,,---,0.00,VWS V14.01,2013-07-02 16:30:00,
2013-07-02 09:35:00,81.5,27.8,0.00,South,178,0.0,0.0,14,0.00,,---,0.00,VWS V14.01,2013-07-02 16:35:00,
2013-07-02 09:40:00,81.3,23.9,0.00,SSE,155,0.0,0.0,12,0.00,,---,0.00,VWS V14.01,2013-07-02 16:40:00,
2013-07-02 09:45:00,81.0,23.6,0.00,South,180,0.0,0.0,12,0.00,,---,0.00,VWS V14.01,2013-07-02 16:45:00,
2013-07-02 09:50:00,81.7,27.9,0.00,SW,222,0.0,0.0,14,0.00,,---,0.00,VWS V14.01,2013-07-02 16:50:00,
2013-07-02 09:55:00,82.9,28.9,0.00,WSW,256,2.7,4.0,14,0.00,,---,0.00,VWS V14.01,2013-07-02 16:55:00,
2013-07-02 10:00:00,83.3,23.4,0.00,SSW,196,0.0,0.0,11,0.00,,---,0.00,VWS V14.01,2013-07-02 17:00:00,
2013-07-02 10:05:00,83.8,23.8,0.00,South,186,0.0,0.0,11,0.00,,---,0.00,VWS V14.01,2013-07-02 17:05:00,
2013-07-02 10:10:00,84.0,23.9,0.00,SSE,163,0.0,0.0,11,0.00,,---,0.00,VWS V14.01,2013-07-02 17:10:00,
2013-07-02 10:15:00,84.7,24.5,0.00,WSW,257,4.0,4.0,11,0.00,,---,0.00,VWS V14.01,2013-07-02 17:15:00,
2013-07-02 10:20:00,85.1,24.7,0.00,West,262,0.0,0.0,11,0.00,,---,0.00,VWS V14.01,2013-07-02 17:20:00,
2013-07-02 10:25:00,85.6,25.2,0.00,ESE,107,2.7,4.0,11,0.00,,---,0.00,VWS V14.01,2013-07-02 17:25:00,
2013-07-02 10:30:00,86.2,25.6,0.00,North,357,0.0,0.0,11,0.00,,---,0.00,VWS V14.01,2013-07-02 17:30:00,
2013-07-02 10:35:00,87.1,26.3,0.00,WSW,241,0.0,0.0,11,0.00,,---,0.00,VWS V14.01,2013-07-02 17:35:00,
2013-07-02 10:40:00,87.3,26.4,0.00,South,178,4.0,4.0,11,0.00,,---,0.00,VWS V14.01,2013-07-02 17:40:00,
2013-07-02 10:45:00,86.9,26.1,0.00,South,184,5.4,5.4,11,0.00,,---,0.00,VWS V14.01,2013-07-02 17:45:00,
2013-07-02 10:50:00,86.5,25.9,0.00,SSE,168,5.4,8.1,11,0.00,,---,0.00,VWS V14.01,2013-07-02 17:50:00,
2013-07-02 10:55:00,86.5,25.9,0.00,SSW,207,3.6,4.9,11,0.00,,---,0.00,VWS V14.01,2013-07-02 17:55:00,
2013-07-02 11:00:00,86.9,26.1,0.00,South,183,3.6,5.4,11,0.00,,---,0.00,VWS V14.01,2013-07-02 18:00:00,
2013-07-02 11:05:00,87.1,26.3,0.00,SSW,207,5.4,5.4,11,0.00,,---,0.00,VWS V14.01,2013-07-02 18:05:00,
2013-07-02 11:10:00,87.3,26.4,0.00,South,186,6.3,6.3,11,0.00,,---,0.00,VWS V14.01,2013-07-02 18:10:00,
2013-07-02 11:15:00,87.6,26.7,0.00,South,183,2.7,3.6,11,0.00,,---,0.00,VWS V14.01,2013-07-02 18:15:00,
2013-07-02 11:20:00,88.2,24.8,0.00,SW,216,3.1,4.0,10,0.00,,---,0.00,VWS V14.01,2013-07-02 18:20:00,
2013-07-02 11:25:00,87.8,24.5,0.00,South,169,4.0,5.4,10,0.00,,---,0.00,VWS V14.01,2013-07-02 18:25:00,
2013-07-02 11:30:00,87.6,26.7,0.00,SSE,159,8.3,8.3,11,0.00,,---,0.00,VWS V14.01,2013-07-02 18:30:00,
2013-07-02 11:35:00,87.3,26.4,0.00,SSE,166,5.4,5.4,11,0.00,,---,0.00,VWS V14.01,2013-07-02 18:35:00,
2013-07-02 11:40:00,86.7,26.0,0.00,SSE,147,5.8,5.8,11,0.00,,---,0.00,VWS V14.01,2013-07-02 18:40:00,
2013-07-02 11:45:00,86.4,25.7,0.00,SSW,192,5.8,5.8,11,0.00,,---,0.00,VWS V14.01,2013-07-02 18:45:00,
2013-07-02 11:50:00,86.2,25.6,0.00,SSE,152,6.7,7.2,11,0.00,,---,0.00,VWS V14.01,2013-07-02 18:50:00,
2013-07-02 11:55:00,86.2,25.6,0.00,South,191,5.8,5.8,11,0.00,,---,0.00,VWS V14.01,2013-07-02 18:55:00,
2013-07-02 12:00:00,86.5,25.9,0.00,SSW,198,5.4,5.4,11,0.00,,---,0.00,VWS V14.01,2013-07-02 19:00:00,
2013-07-02 12:05:00,87.1,26.3,0.00,South,189,5.8,7.2,11,0.00,,---,0.00,VWS V14.01,2013-07-02 19:05:00,
2013-07-02 12:10:00,87.6,26.7,0.00,SE,143,4.0,4.0,11,0.00,,---,0.00,VWS V14.01,2013-07-02 19:10:00,
2013-07-02 12:15:00,88.2,24.8,0.00,SSE,163,3.6,5.4,10,0.00,,---,0.00,VWS V14.01,2013-07-02 19:15:00,
2013-07-02 12:20:00,88.0,24.7,0.00,South,176,4.9,5.8,10,0.00,,---,0.00,VWS V14.01,2013-07-02 19:20:00,
2013-07-02 12:25:00,88.0,24.7,0.00,South,187,7.6,8.1,10,0.00,,---,0.00,VWS V14.01,2013-07-02 19:25:00,
2013-07-02 12:30:00,87.8,24.5,0.00,SW,224,4.0,5.4,10,0.00,,---,0.00,VWS V14.01,2013-07-02 19:30:00,
2013-07-02 12:35:00,88.2,24.8,0.00,South,180,4.9,5.4,10,0.00,,---,0.00,VWS V14.01,2013-07-02 19:35:00,
2013-07-02 12:40:00,88.5,25.1,0.00,SSE,153,5.4,7.2,10,0.00,,---,0.00,VWS V14.01,2013-07-02 19:40:00,
2013-07-02 12:45:00,88.7,25.2,0.00,SSE,155,5.8,5.8,10,0.00,,---,0.00,VWS V14.01,2013-07-02 19:45:00,
2013-07-02 12:50:00,88.7,25.2,0.00,SSE,162,5.8,6.3,10,0.00,,---,0.00,VWS V14.01,2013-07-02 19:50:00,
2013-07-02 12:55:00,88.9,25.3,0.00,South,177,6.3,6.3,10,0.00,,---,0.00,VWS V14.01,2013-07-02 19:55:00,
2013-07-02 13:00:00,89.6,25.9,0.00,SSE,164,0.0,0.0,10,0.00,,---,0.00,VWS V14.01,2013-07-02 20:00:00,
2013-07-02 13:05:00,90.1,26.3,0.00,SSE,149,0.0,0.0,10,0.00,,---,0.00,VWS V14.01,2013-07-02 20:05:00,
2013-07-02 13:10:00,90.3,26.4,0.00,SSE,153,0.0,0.0,10,0.00,,---,0.00,VWS V14.01,2013-07-02 20:10:00,
2013-07-02 13:11:00,90.3,26.4,0.00,South,185,0.0,0.0,10,0.00,,---,0.00,VWS V14.01,2013-07-02 20:11:00,
2013-07-02 13:16:00,90.3,26.4,0.00,South,190,0.0,0.0,10,0.00,,---,0.00,VWS V14.01,2013-07-02 20:16:00,
2013-07-02 13:21:00,90.3,26.4,0.00,SSE,151,0.0,0.0,10,0.00,,---,0.00,VWS V14.01,2013-07-02 20:21:00,
2013-07-02 13:26:00,90.5,26.6,0.00,SE,141,0.0,0.0,10,0.00,,---,0.00,VWS V14.01,2013-07-02 20:26:00,
2013-07-02 13:31:00,90.9,26.8,0.00,South,187,0.0,0.0,10,0.00,,---,0.00,VWS V14.01,2013-07-02 20:31:00,
2013-07-02 13:36:00,91.4,24.7,0.00,South,184,0.0,0.0,9,0.00,,---,0.00,VWS V14.01,2013-07-02 20:36:00,
2013-07-02 13:41:00,91.6,24.8,0.00,SE,143,0.0,0.0,9,0.00,,---,0.00,VWS V14.01,2013-07-02 20:41:00,
2013-07-02 13:46:00,91.6,24.8,0.00,South,189,0.0,0.0,9,0.00,,---,0.00,VWS V14.01,2013-07-02 20:46:00,
2013-07-02 13:51:00,91.6,24.8,0.00,South,175,0.0,0.0,9,0.00,,---,0.00,VWS V14.01,2013-07-02 20:51:00,
2013-07-02 13:56:00,91.8,25.0,0.00,SSE,151,0.0,0.0,9,0.00,,---,0.00,VWS V14.01,2013-07-02 20:56:00,
2013-07-02 14:01:00,91.8,25.0,0.00,SSE,162,0.0,0.0,9,0.00,,---,0.00,VWS V14.01,2013-07-02 21:01:00,
2013-07-02 14:06:00,92.1,25.2,0.00,South,182,0.0,0.0,9,0.00,,---,0.00,VWS V14.01,2013-07-02 21:06:00,
2013-07-02 14:11:00,92.3,25.4,0.00,South,170,0.0,0.0,9,0.00,,---,0.00,VWS V14.01,2013-07-02 21:11:00,
2013-07-02 14:16:00,92.7,25.6,0.00,SSE,160,0.0,0.0,9,0.00,,---,0.00,VWS V14.01,2013-07-02 21:16:00,
2013-07-02 14:21:00,92.3,25.4,0.00,ESE,120,0.0,0.0,9,0.00,,---,0.00,VWS V14.01,2013-07-02 21:21:00,
2013-07-02 14:26:00,92.7,25.6,0.00,South,181,0.0,0.0,9,0.00,,---,0.00,VWS V14.01,2013-07-02 21:26:00,
2013-07-02 14:31:00,92.7,25.6,0.00,SSE,160,0.0,0.0,9,0.00,,---,0.00,VWS V14.01,2013-07-02 21:31:00,
2013-07-02 14:36:00,93.0,25.9,0.00,South,191,0.0,0.0,9,0.00,,---,0.00,VWS V14.01,2013-07-02 21:36:00,
2013-07-02 14:41:00,93.0,25.9,0.00,South,182,0.0,0.0,9,0.00,,---,0.00,VWS V14.01,2013-07-02 21:41:00,
2013-07-02 14:46:00,93.2,26.0,0.00,SSE,147,0.0,0.0,9,0.00,,---,0.00,VWS V14.01,2013-07-02 21:46:00,
2013-07-02 14:51:00,93.9,26.6,0.00,SSE,149,0.0,0.0,9,0.00,,---,0.00,VWS V14.01,2013-07-02 21:51:00,
2013-07-02 14:56:00,93.9,26.6,0.00,SE,145,0.0,0.0,9,0.00,,---,0.00,VWS V14.01,2013-07-02 21:56:00,
2013-07-02 15:01:00,94.1,26.7,0.00,SSE,156,0.0,0.0,9,0.00,,---,0.00,VWS V14.01,2013-07-02 22:01:00,
2013-07-02 15:05:00,94.5,27.0,0.00,SSE,159,0.0,0.0,9,0.00,,---,0.00,VWS V14.01,2013-07-02 22:05:00,
2013-07-02 15:10:00,94.5,27.0,0.00,SSE,150,0.0,0.0,9,0.00,,---,0.00,VWS V14.01,2013-07-02 22:10:00,
2013-07-02 15:15:00,94.3,26.9,0.00,South,178,0.0,0.0,9,0.00,,---,0.00,VWS V14.01,2013-07-02 22:15:00,
2013-07-02 15:20:00,94.1,26.7,0.00,SSE,160,0.0,0.0,9,0.00,,---,0.00,VWS V14.01,2013-07-02 22:20:00,
2013-07-02 15:25:00,94.1,26.7,0.00,South,183,0.0,0.0,9,0.00,,---,0.00,VWS V14.01,2013-07-02 22:25:00,
2013-07-02 15:30:00,93.9,26.6,0.00,SE,132,0.0,0.0,9,0.00,,---,0.00,VWS V14.01,2013-07-02 22:30:00,
2013-07-02 15:35:00,94.1,26.7,0.00,SE,131,0.0,0.0,9,0.00,,---,0.00,VWS V14.01,2013-07-02 22:35:00,
2013-07-02 15:40:00,94.1,26.7,0.00,SSE,154,0.0,0.0,9,0.00,,---,0.00,VWS V14.01,2013-07-02 22:40:00,
2013-07-02 15:45:00,94.1,26.7,0.00,South,173,0.0,0.0,9,0.00,,---,0.00,VWS V14.01,2013-07-02 22:45:00,
2013-07-02 15:50:00,94.3,26.9,0.00,SSE,166,0.0,0.0,9,0.00,,---,0.00,VWS V14.01,2013-07-02 22:50:00,
2013-07-02 15:55:00,94.3,26.9,0.00,South,171,0.0,0.0,9,0.00,,---,0.00,VWS V14.01,2013-07-02 22:55:00,
2013-07-02 16:00:00,94.3,26.9,0.00,SSE,153,0.0,0.0,9,0.00,,---,0.00,VWS V14.01,2013-07-02 23:00:00,
2013-07-02 16:05:00,94.5,27.0,0.00,SSE,149,0.0,0.0,9,0.00,,---,0.00,VWS V14.01,2013-07-02 23:05:00,
2013-07-02 16:10:00,94.3,26.9,0.00,South,170,0.0,0.0,9,0.00,,---,0.00,VWS V14.01,2013-07-02 23:10:00,
2013-07-02 16:15:00,94.1,26.7,0.00,SE,146,0.0,0.0,9,0.00,,---,0.00,VWS V14.01,2013-07-02 23:15:00,
2013-07-02 16:20:00,94.1,26.7,0.00,SSE,152,0.0,0.0,9,0.00,,---,0.00,VWS V14.01,2013-07-02 23:20:00,
2013-07-02 16:25:00,94.5,27.0,0.00,South,175,0.0,0.0,9,0.00,,---,0.00,VWS V14.01,2013-07-02 23:25:00,
2013-07-02 16:29:00,94.5,27.0,0.00,ESE,111,0.0,0.0,9,0.00,,---,0.00,VWS V14.01,2013-07-02 23:29:00,
2013-07-02 16:34:00,94.5,27.0,0.00,SSW,198,0.0,0.0,9,0.00,,---,0.00,VWS V14.01,2013-07-02 23:34:00,
2013-07-02 16:39:00,94.6,27.1,0.00,SSW,200,0.0,0.0,9,0.00,,---,0.00,VWS V14.01,2013-07-02 23:39:00,
2013-07-02 16:44:00,94.8,27.3,0.00,SSE,160,0.0,0.0,9,0.00,,---,0.00,VWS V14.01,2013-07-02 23:44:00,
2013-07-02 16:49:00,94.8,27.3,0.00,South,176,0.0,0.0,9,0.00,,---,0.00,VWS V14.01,2013-07-02 23:49:00,
2013-07-02 16:54:00,94.6,27.1,0.00,South,177,0.0,0.0,9,0.00,,---,0.00,VWS V14.01,2013-07-02 23:54:00,
2013-07-02 16:59:00,94.5,27.0,0.00,SSE,165,0.0,0.0,9,0.00,,---,0.00,VWS V14.01,2013-07-02 23:59:00,
2013-07-02 17:01:00,94.5,27.0,0.00,South,184,0.0,0.0,9,0.00,,---,0.00,VWS V14.01,2013-07-03 00:01:00,
2013-07-02 17:06:00,94.5,27.0,0.00,South,177,0.0,0.0,9,0.00,,---,0.00,VWS V14.01,2013-07-03 00:06:00,
2013-07-02 17:11:00,94.5,27.0,0.00,South,188,0.0,0.0,9,0.00,,---,0.00,VWS V14.01,2013-07-03 00:11:00,
2013-07-02 17:16:00,94.5,27.0,0.00,South,178,0.0,0.0,9,0.00,,---,0.00,VWS V14.01,2013-07-03 00:16:00,
2013-07-02 17:21:00,94.5,27.0,0.00,SSW,209,0.0,0.0,9,0.00,,---,0.00,VWS V14.01,2013-07-03 00:21:00,
2013-07-02 17:23:00,94.5,27.0,0.00,South,170,0.0,0.0,9,0.00,,---,0.00,VWS V14.01,2013-07-03 00:23:00,
2013-07-02 17:24:00,94.5,27.0,0.00,South,184,0.0,0.0,9,0.00,,---,0.00,VWS V14.01,2013-07-03 00:24:00,
2013-07-02 17:28:00,94.3,26.9,0.00,SSE,154,0.0,0.0,9,0.00,,---,0.00,VWS V14.01,2013-07-03 00:28:00,
2013-07-02 17:33:00,94.3,26.9,0.00,SE,142,0.0,0.0,9,0.00,,---,0.00,VWS V14.01,2013-07-03 00:33:00,
2013-07-02 17:38:00,94.3,26.9,0.00,SSE,160,0.0,0.0,9,0.00,,---,0.00,VWS V14.01,2013-07-03 00:38:00,
2013-07-02 17:43:00,94.3,26.9,0.00,SSE,165,0.0,0.0,9,0.00,,---,0.00,VWS V14.01,2013-07-03 00:43:00,
2013-07-02 17:48:00,94.3,26.9,0.00,SSE,156,0.0,0.0,9,0.00,,---,0.00,VWS V14.01,2013-07-03 00:48:00,
2013-07-02 17:53:00,94.1,26.7,0.00,South,173,0.0,0.0,9,0.00,,---,0.00,VWS V14.01,2013-07-03 00:53:00,
2013-07-02 17:58:00,93.9,26.6,0.00,SSE,158,0.0,0.0,9,0.00,,---,0.00,VWS V14.01,2013-07-03 00:58:00,
2013-07-02 18:00:00,93.9,26.6,0.00,SSE,152,0.0,0.0,9,0.00,,---,0.00,VWS V14.01,2013-07-03 01:00:00,
2013-07-02 18:03:00,93.7,26.5,0.00,SSE,164,0.0,0.0,9,0.00,,---,0.00,VWS V14.01,2013-07-03 01:03:00,
2013-07-02 18:08:00,93.6,26.3,0.00,South,177,0.0,0.0,9,0.00,,---,0.00,VWS V14.01,2013-07-03 01:08:00,
2013-07-02 18:09:00,93.6,26.3,0.00,South,179,0.0,0.0,9,0.00,,---,0.00,VWS V14.01,2013-07-03 01:09:00,
2013-07-02 18:14:00,93.4,26.2,0.00,South,181,0.0,0.0,9,0.00,,---,0.00,VWS V14.01,2013-07-03 01:14:00,
2013-07-02 18:19:00,93.2,26.0,0.00,South,181,0.0,0.0,9,0.00,,---,0.00,VWS V14.01,2013-07-03 01:19:00,
2013-07-02 18:24:00,92.7,25.6,0.00,SSE,168,0.0,0.0,9,0.00,,---,0.00,VWS V14.01,2013-07-03 01:24:00,
2013-07-02 18:26:00,92.5,25.5,0.00,SE,145,0.0,0.0,9,0.00,,---,0.00,VWS V14.01,2013-07-03 01:26:00,
2013-07-02 18:31:00,92.1,25.2,0.00,South,176,0.0,0.0,9,0.00,,---,0.00,VWS V14.01,2013-07-03 01:31:00,
2013-07-02 18:36:00,91.8,25.0,0.00,SSE,152,0.0,0.0,9,0.00,,---,0.00,VWS V14.01,2013-07-03 01:36:00,
2013-07-02 18:41:00,91.6,24.8,0.00,SSE,156,0.0,0.0,9,0.00,,---,0.00,VWS V14.01,2013-07-03 01:41:00,
2013-07-02 18:46:00,91.4,24.7,0.00,SSE,147,0.0,0.0,9,0.00,,---,0.00,VWS V14.01,2013-07-03 01:46:00,
2013-07-02 18:50:00,91.2,27.1,0.00,SE,141,0.0,0.0,10,0.00,,---,0.00,VWS V14.01,2013-07-03 01:50:00,
2013-07-02 18:55:00,90.9,26.8,0.00,South,169,0.0,0.0,10,0.00,,---,0.00,VWS V14.01,2013-07-03 01:55:00,
2013-07-02 19:01:00,90.9,26.8,0.00,SE,137,0.0,0.0,10,0.00,,---,0.00,VWS V14.01,2013-07-03 02:01:00,
2013-07-02 19:06:00,90.7,26.7,0.00,South,172,0.0,0.0,10,0.00,,---,0.00,VWS V14.01,2013-07-03 02:06:00,
2013-07-02 19:11:00,90.7,26.7,0.00,SE,143,0.0,0.0,10,0.00,,---,0.00,VWS V14.01,2013-07-03 02:11:00,
2013-07-02 19:16:00,90.3,26.4,0.00,SE,127,0.0,0.0,10,0.00,,---,0.00,VWS V14.01,2013-07-03 02:16:00,
2013-07-02 19:21:00,90.1,26.3,0.00,SSE,147,0.0,0.0,10,0.00,,---,0.00,VWS V14.01,2013-07-03 02:21:00,
2013-07-02 19:26:00,90.0,26.2,0.00,SE,144,0.0,0.0,10,0.00,,---,0.00,VWS V14.01,2013-07-03 02:26:00,
2013-07-02 19:31:00,89.6,25.9,0.00,SSE,159,0.0,0.0,10,0.00,,---,0.00,VWS V14.01,2013-07-03 02:31:00,
2013-07-02 19:32:00,89.6,25.9,0.00,SSE,159,0.0,0.0,10,0.00,,---,0.00,VWS V14.01,2013-07-03 02:32:00,
2013-07-02 19:37:00,89.2,25.6,0.00,SE,128,0.0,0.0,10,0.00,,---,0.00,VWS V14.01,2013-07-03 02:37:00,
2013-07-02 19:42:00,88.9,25.3,0.00,SE,144,0.0,0.0,10,0.00,,---,0.00,VWS V14.01,2013-07-03 02:42:00,
2013-07-02 19:46:00,88.7,25.2,0.00,SE,127,0.0,0.0,10,0.00,,---,0.00,VWS V14.01,2013-07-03 02:46:00,
2013-07-02 19:51:00,88.3,24.9,0.00,SSE,159,0.0,0.0,10,0.00,,---,0.00,VWS V14.01,2013-07-03 02:51:00,
2013-07-02 19:56:00,88.2,24.8,0.00,South,171,0.0,0.0,10,0.00,,---,0.00,VWS V14.01,2013-07-03 02:56:00,
2013-07-02 20:02:00,87.8,24.5,0.00,SE,135,0.0,0.0,10,0.00,,---,0.00,VWS V14.01,2013-07-03 03:02:00,
2013-07-02 20:07:00,87.4,26.5,0.00,SSE,166,0.0,0.0,11,0.00,,---,0.00,VWS V14.01,2013-07-03 03:07:00,
2013-07-02 20:12:00,87.1,26.3,0.00,SSE,153,0.0,0.0,11,0.00,,---,0.00,VWS V14.01,2013-07-03 03:12:00,
2013-07-02 20:17:00,87.1,26.3,0.00,South,177,0.0,0.0,11,0.00,,---,0.00,VWS V14.01,2013-07-03 03:17:00,
2013-07-02 20:20:00,86.9,26.1,0.00,SSE,154,0.0,0.0,11,0.00,,---,0.00,VWS V14.01,2013-07-03 03:20:00,
2013-07-02 20:25:00,86.7,26.0,0.00,SE,146,0.0,0.0,11,0.00,,---,0.00,VWS V14.01,2013-07-03 03:25:00,
2013-07-02 20:30:00,86.4,25.7,0.00,South,175,0.0,0.0,11,0.00,,---,0.00,VWS V14.01,2013-07-03 03:30:00,
2013-07-02 20:35:00,86.0,25.4,0.00,SSW,206,0.0,0.0,11,0.00,,---,0.00,VWS V14.01,2013-07-03 03:35:00,
2013-07-02 20:39:00,86.0,25.4,0.00,South,190,0.0,0.0,11,0.00,,---,0.00,VWS V14.01,2013-07-03 03:39:00,
2013-07-02 20:44:00,85.8,25.3,0.00,SSE,162,0.0,0.0,11,0.00,,---,0.00,VWS V14.01,2013-07-03 03:44:00,
2013-07-02 20:49:00,85.8,25.3,0.00,South,176,0.0,0.0,11,0.00,,---,0.00,VWS V14.01,2013-07-03 03:49:00,
2013-07-02 20:54:00,85.6,25.2,0.00,SSE,168,0.0,0.0,11,0.00,,---,0.00,VWS V14.01,2013-07-03 03:54:00,
2013-07-02 20:59:00,85.5,25.0,0.00,South,174,0.0,0.0,11,0.00,,---,0.00,VWS V14.01,2013-07-03 03:59:00,
2013-07-02 21:00:00,85.5,25.0,0.00,SE,136,0.0,0.0,11,0.00,,---,0.00,VWS V14.01,2013-07-03 04:00:00,
2013-07-02 21:01:00,85.5,25.0,0.00,South,184,0.0,0.0,11,0.00,,---,0.00,VWS V14.01,2013-07-03 04:01:00,
2013-07-02 21:03:00,85.5,25.0,0.00,SSE,168,0.0,0.0,11,0.00,,---,0.00,VWS V14.01,2013-07-03 04:03:00,
2013-07-02 21:04:00,85.5,25.0,0.00,SSE,166,0.0,0.0,11,0.00,,---,0.00,VWS V14.01,2013-07-03 04:04:00,
2013-07-02 21:09:00,85.3,24.9,0.00,South,174,0.0,0.0,11,0.00,,---,0.00,VWS V14.01,2013-07-03 04:09:00,
2013-07-02 21:14:00,84.9,24.6,0.00,South,185,0.0,0.0,11,0.00,,---,0.00,VWS V14.01,2013-07-03 04:14:00,
2013-07-02 21:19:00,84.6,24.3,0.00,South,173,0.0,0.0,11,0.00,,---,0.00,VWS V14.01,2013-07-03 04:19:00,
2013-07-02 21:24:00,84.4,24.2,0.00,SSE,167,0.0,0.0,11,0.00,,---,0.00,VWS V14.01,2013-07-03 04:24:00,
2013-07-02 21:29:00,84.2,24.0,0.00,SSE,161,0.0,0.0,11,0.00,,---,0.00,VWS V14.01,2013-07-03 04:29:00,
2013-07-02 21:31:00,84.2,24.0,0.00,South,181,0.0,0.0,11,0.00,,---,0.00,VWS V14.01,2013-07-03 04:31:00,
2013-07-02 21:32:00,84.2,24.0,0.00,SE,145,0.0,0.0,11,0.00,,---,0.00,VWS V14.01,2013-07-03 04:32:00,
2013-07-02 21:37:00,84.0,23.9,0.00,SE,143,0.0,0.0,11,0.00,,---,0.00,VWS V14.01,2013-07-03 04:37:00,
2013-07-02 21:42:00,83.8,23.8,0.00,SSW,204,0.0,0.0,11,0.00,,---,0.00,VWS V14.01,2013-07-03 04:42:00,
2013-07-02 21:45:00,83.7,23.6,0.00,South,187,0.0,3.1,11,0.00,,---,0.00,VWS V14.01,2013-07-03 04:45:00,
2013-07-02 21:46:00,83.7,23.6,0.00,SSE,151,4.5,4.5,11,0.00,,---,0.00,VWS V14.01,2013-07-03 04:46:00,
2013-07-02 21:51:00,83.5,23.5,0.00,SSE,161,5.4,5.8,11,0.00,,---,0.00,VWS V14.01,2013-07-03 04:51:00,
2013-07-02 21:53:00,83.5,23.5,0.00,South,184,0.0,2.7,11,0.00,,---,0.00,VWS V14.01,2013-07-03 04:53:00,
2013-07-02 21:58:00,83.3,23.4,0.00,SSW,195,0.0,0.0,11,0.00,,---,0.00,VWS V14.01,2013-07-03 04:58:00,
2013-07-02 22:03:00,82.9,23.1,0.00,South,179,2.7,3.6,11,0.00,,---,0.00,VWS V14.01,2013-07-03 05:03:00,
2013-07-02 22:07:00,82.9,23.1,0.00,SSW,197,3.1,4.0,11,0.00,,---,0.00,VWS V14.01,2013-07-03 05:07:00,
2013-07-02 22:12:00,82.9,23.1,0.00,South,171,0.0,0.0,11,0.00,,---,0.00,VWS V14.01,2013-07-03 05:12:00,
2013-07-02 22:17:00,82.8,23.0,0.00,SSW,192,2.2,2.7,11,0.00,,---,0.00,VWS V14.01,2013-07-03 05:17:00,
2013-07-02 22:19:00,82.6,22.8,0.00,SSE,163,2.7,4.9,11,0.00,,---,0.00,VWS V14.01,2013-07-03 05:19:00,
2013-07-02 22:24:00,82.4,22.7,0.00,South,173,0.0,0.0,11,0.00,,---,0.00,VWS V14.01,2013-07-03 05:24:00,
2013-07-02 22:29:00,82.0,24.5,0.00,SSE,160,0.0,0.0,12,0.00,,---,0.00,VWS V14.01,2013-07-03 05:29:00,
2013-07-02 22:34:00,81.9,24.3,0.00,SSE,157,0.0,0.0,12,0.00,,---,0.00,VWS V14.01,2013-07-03 05:34:00,
2013-07-02 22:39:00,81.5,24.0,0.00,SSE,159,0.0,0.0,12,0.00,,---,0.00,VWS V14.01,2013-07-03 05:39:00,
2013-07-02 22:44:00,81.5,24.0,0.00,South,179,0.0,0.0,12,0.00,,---,0.00,VWS V14.01,2013-07-03 05:44:00,
2013-07-02 22:49:00,81.3,23.9,0.00,South,179,0.0,0.0,12,0.00,,---,0.00,VWS V14.01,2013-07-03 05:49:00,
2013-07-02 22:54:00,81.0,23.6,0.00,South,179,0.0,0.0,12,0.00,,---,0.00,VWS V14.01,2013-07-03 05:54:00,
2013-07-02 22:57:00,80.8,23.5,0.00,South,179,0.0,0.0,12,0.00,,---,0.00,VWS V14.01,2013-07-03 05:57:00,
2013-07-02 22:58:00,80.6,23.4,0.00,South,179,0.0,0.0,12,0.00,,---,0.00,VWS V14.01,2013-07-03 05:58:00,
2013-07-02 23:02:00,80.4,23.2,0.00,South,179,0.0,0.0,12,0.00,,---,0.00,VWS V14.01,2013-07-03 06:02:00,
2013-07-02 23:07:00,81.0,23.6,0.00,South,180,0.0,0.0,12,0.00,,---,0.00,VWS V14.01,2013-07-03 06:07:00,
2013-07-02 23:12:00,81.7,24.2,0.00,SW,221,0.0,0.0,12,0.00,,---,0.00,VWS V14.01,2013-07-03 06:12:00,
2013-07-02 23:13:00,81.9,24.3,0.00,SSW,206,0.0,0.0,12,0.00,,---,0.00,VWS V14.01,2013-07-03 06:13:00,
2013-07-02 23:16:00,82.4,22.7,0.00,SSW,206,0.0,0.0,11,0.00,,---,0.00,VWS V14.01,2013-07-03 06:16:00,
2013-07-02 23:17:00,82.4,22.7,0.00,SSW,206,0.0,0.0,11,0.00,,---,0.00,VWS V14.01,2013-07-03 06:17:00,
2013-07-02 23:22:00,82.8,23.0,0.00,SSW,206,0.0,0.0,11,0.00,,---,0.00,VWS V14.01,2013-07-03 06:22:00,
2013-07-02 23:24:00,82.4,22.7,0.00,SSW,206,0.0,0.0,11,0.00,,---,0.00,VWS V14.01,2013-07-03 06:24:00,
2013-07-02 23:26:00,82.0,24.5,0.00,SSW,206,0.0,0.0,12,0.00,,---,0.00,VWS V14.01,2013-07-03 06:26:00,
2013-07-02 23:31:00,81.5,24.0,0.00,South,181,0.0,0.0,12,0.00,,---,0.00,VWS V14.01,2013-07-03 06:31:00,
2013-07-02 23:33:00,81.3,23.9,0.00,South,181,0.0,0.0,12,0.00,,---,0.00,VWS V14.01,2013-07-03 06:33:00,
2013-07-02 23:38:00,81.1,23.8,0.00,WNW,301,3.6,4.0,12,0.00,,---,0.00,VWS V14.01,2013-07-03 06:38:00,
2013-07-02 23:43:00,80.6,23.4,0.00,WNW,282,0.0,3.1,12,0.00,,---,0.00,VWS V14.01,2013-07-03 06:43:00,
2013-07-02 23:48:00,80.6,23.4,0.00,WSW,250,4.0,4.0,12,0.00,,---,0.00,VWS V14.01,2013-07-03 06:48:00,
2013-07-02 23:53:00,81.3,23.9,0.00,WSW,240,4.0,4.9,12,0.00,,---,0.00,VWS V14.01,2013-07-03 06:53:00,
2013-07-02 23:55:00,81.5,24.0,0.00,WSW,240,5.4,5.4,12,0.00,,---,0.00,VWS V14.01,2013-07-03 06:55:00,